Location: Wells
(51.2093°N, 2.6446°W)
Time: 08:29:58
(UTC+01:00)

SO-50 - Pass Details

Date: 19 March 2026
Orbit: 567 x 673 km, 64.6° (Epoch: 17 April)

Event Time Altitude Azimuth Distance (km) Brightness Sun altitude
Rises 21:09:32 0° 298° (WNW) 3,006 ? -25.4°
Reaches altitude 10° 21:12:40 10° 319° (NW) 2,105 ? -25.8°
Maximum altitude 21:15:43 17° 359° (N) 1,714 ? -26.2°
Enters shadow 21:18:35 11° 37° (NE) 2,070 ? -26.6°
